Notices

What's New in latest Release from April 7th, 2021:

- Updated Glossary, including Speed of Maximum Gust, and Total Hourly Precipitation

- Updated national and regional climate services offices contacts and prices information

- Addition of station inventory lists for 1981-2010, 1971-2000, and 1961-1990 Normals.

If you haven't already, please take our survey and provide feedback about our website: https://eccc.sondage-survey.ca/f/LanguageSelection.aspx?s=442ca660-fcf1-47c0-95a9-59707d6fd709

Hourly Data Report for July 28, 2003

TORONTO CITY
ONTARIO

43°40'00.000" N
79°24'00.000" W
112.50 m
6158355
71508
XTO

Download Data

Hourly Data (July 2003)
Hourly Data Report for July 28, 2003
TIME
LST
Temp Definition
°C
Dew Point Definition
°C
Rel Hum Definition
%
Precip. Amount Definition
mm

Wind Dir Definition
10's deg

Wind Spd Definition
km/h
Visibility Definition
km
Stn Press Definition
kPa
Hmdx Definition


Wind Chill Definition


Weather Definition


00:00 19.2 15.5 79   LegendMM LegendMM LegendMM 99.85     LegendNANA
01:00 18.8 14.1 74   LegendMM LegendMM LegendMM 99.87     LegendNANA
02:00 17.9 12.8 72   LegendMM LegendMM LegendMM 99.90     LegendNANA
03:00 16.9 11.6 71   LegendMM LegendMM LegendMM 99.96     LegendNANA
04:00 16.0 11.7 76   LegendMM LegendMM LegendMM 100.02     LegendNANA
05:00 15.2 11.5 79   LegendMM LegendMM LegendMM 100.03     LegendNANA
06:00 15.3 12.8 85   LegendMM LegendMM LegendMM 100.04     LegendNANA
07:00 17.7 12.5 72   LegendMM LegendMM LegendMM 100.05     LegendNANA
08:00 19.6 11.8 61   LegendMM LegendMM LegendMM 100.06     LegendNANA
09:00 21.3 10.3 49   LegendMM LegendMM LegendMM 100.05     LegendNANA
10:00 22.2 9.7 45   LegendMM LegendMM LegendMM 100.07     LegendNANA
11:00 23.8 12.0 48   LegendMM LegendMM LegendMM 100.06 26   LegendNANA
12:00 22.9 13.0 54   LegendMM LegendMM LegendMM 100.02 26   LegendNANA
13:00 23.9 11.8 47   LegendMM LegendMM LegendMM 99.98 26   LegendNANA
14:00 23.1 11.4 48   LegendMM LegendMM LegendMM 99.93 25   LegendNANA
15:00 24.3 13.5 51   LegendMM LegendMM LegendMM 99.86 27   LegendNANA
16:00 23.8 12.9 50   LegendMM LegendMM LegendMM 99.83 27   LegendNANA
17:00 24.2 13.0 50   LegendMM LegendMM LegendMM 99.80 27   LegendNANA
18:00 23.5 12.5 50   LegendMM LegendMM LegendMM 99.79 26   LegendNANA
19:00 24.1 10.5 42   LegendMM LegendMM LegendMM 99.82 26   LegendNANA
20:00 23.0 11.5 48   LegendMM LegendMM LegendMM 99.86 25   LegendNANA
21:00 22.4 11.2 49   LegendMM LegendMM LegendMM 99.92     LegendNANA
22:00 21.2 11.0 52   LegendMM LegendMM LegendMM 99.93     LegendNANA
23:00 20.2 11.1 56   LegendMM LegendMM LegendMM 99.94     LegendNANA

Notes on Data Quality.

Legend

  • E = Estimated
  • M = Missing
  • NA = Not Available*
  • [empty] = Indicates an unobserved value
Date modified: